Regional Weather Roundup
Issued by NWS

Home | Current Version | Previous Version | Text Only | Print | Product List | Glossary Off
Versions: 1 2 3 4 5 6 7 8 9 10 11 12 13 14 15 16 17 18 19 20 21 22 23 24 25 26 27 28 29 30 31 32 33 34 35 36 37 38 39 40 41 42 43 44 45 46 47 48 49 50

000
ASUS43 KDMX 011607
RWRIA

WEATHER ROUNDUP FOR IOWA
NATIONAL WEATHER SERVICE DES MOINES IA
1100 AM CDT TUE SEP 01 2015

NOTE: "FAIR" INDICATES FEW OR NO CLOUDS BELOW 12,000 FEET WITH NO
SIGNIFICANT WEATHER AND/OR OBSTRUCTIONS TO VISIBILITY.

* - THESE STATIONS ARE NOT NWS STATIONS...THUS NOT UNDER NWS
QUALITY CONTROL.  THEY ALSO DO NOT REPORT WEATHER SUCH
AS PRECIPITATION OR FOG.

IAZ001>003-012>014-020>022-031>034-043>046-011700-
   NORTHWEST IOWA

CITY           SKY/WX    TMP DP  RH WIND       PRES   REMARKS
CARROLL *      SUNNY     81  72  74 SW15      29.95F HX  84
CHEROKEE *     PTSUNNY   77  70  78 S12       29.92S
DENISON *      SUNNY     79  70  73 S13G18    29.94S HX  81
LE MARS *      SUNNY     77  68  73 S10G18    29.92R
ORANGE CITY *  SUNNY     77  70  78 S9        29.92R
SHELDON *      SUNNY     77  68  73 S7        29.91S
SIOUX CITY     PTSUNNY   80  66  62 S12       29.92R HX  82
SPENCER        MOSUNNY   77  68  73 SW8       29.93S
STORM LAKE *   SUNNY     77  70  78 SW12G17   29.95S
$$

IAZ055>058-069>071-079>083-090>094-011700-
   SOUTHWEST IOWA

CITY           SKY/WX    TMP DP  RH WIND       PRES   REMARKS
ATLANTIC *     SUNNY     79  72  78 SW10      29.98S HX  82
AUDUBON *      SUNNY     81  72  74 SW8       29.99S HX  84
CLARINDA *     SUNNY     82  70  65 SW12      30.00S HX  86
COUNCIL BLFS * SUNNY     81  70  69 SW9       29.97S HX  84
CRESTON *      SUNNY     79  70  73 SW14      30.02S HX  81
LAMONI         SUNNY     82  70  66 SW13      30.02S HX  86
RED OAK *      SUNNY     79  72  78 S9        29.98S HX  82
SHENANDOAH *   SUNNY     81  70  69 S7G16     29.98S HX  84
$$

IAZ047>049-059>061-072>074-084-011700-
   CENTRAL IOWA

CITY           SKY/WX    TMP DP  RH WIND       PRES   REMARKS
AMES           SUNNY     81  71  71 S9        29.97S HX  85
ANKENY *       SUNNY     82  72  69 S12       29.97F HX  87
CHARITON *     SUNNY     82  72  69 SW8G15    30.01S HX  87
DES MOINES     MOSUNNY   83  70  64 SW9       29.97F HX  87
GRINNELL*      SUNNY     81  70  69 SW13      30.00F HX  84
KNOXVILLE *    SUNNY     81  70  69 SW8       29.99S HX  84
MARSHALLTOWN   SUNNY     80  71  74 SW12      29.98S HX  84
PELLA *        SUNNY     82  73  74 SW10      30.01S HX  88
PERRY *          N/A     81  72  74 SW10      29.97S HX  84
$$

IAZ004>006-015-016-023>025-035-036-011700-
   NORTH CENTRAL IOWA

CITY           SKY/WX    TMP DP  RH WIND       PRES   REMARKS
ALGONA *       SUNNY     77  72  83 S9        29.95S
CLARION *      HAZE      77  72  83 S9        29.96S VSB 1
ESTHERVILLE    MOSUNNY   75  69  81 S10       29.93S
FORT DODGE *   SUNNY     81  70  69 SW8       29.96S HX  84
MASON CITY     SUNNY     79  72  79 S9        29.98S HX  82
FOREST CITY *  SUNNY     77  70  78 S9        29.96S
IOWA FALLS *     N/A     81  72  74 S8        29.99S HX  84
$$

IAZ007>011-017>019-026>030-037>042-050>054-066-011700-
   NORTHEAST IOWA

CITY           SKY/WX    TMP DP  RH WIND       PRES   REMARKS
CEDAR RAPIDS   SUNNY     80  73  79 S10       30.00S HX  84
CHARLES CITY * SUNNY     79  75  89 S9        29.98S HX  82
CLINTON *      SUNNY     82  73  74 W8        30.05S HX  88
DECORAH *      SUNNY     79  72  78 S9        29.98S HX  82
DUBUQUE        SUNNY     80  72  76 S9        30.02S HX  84
MONTICELLO *   SUNNY     82  72  69 S9        30.00S HX  87
OELWEIN *      SUNNY     79  72  78 SW8       30.01R HX  82
WATERLOO       SUNNY     80  71  74 SW10      29.97S HX  84
$$

IAZ064-065-067-068-078-011700-
   EAST CENTRAL IOWA

CITY           SKY/WX    TMP DP  RH WIND       PRES   REMARKS
DAVENPORT      SUNNY     84  72  67 SW10G17   30.03S HX  89
IOWA CITY      SUNNY     83  71  67 SW12      30.02S HX  87
MT. PLEASANT * SUNNY     86  68  54 SW10      30.03S HX  89
MUSCATINE *    SUNNY     86  70  58 SW12      30.01F HX  90
QUAD CITIES    SUNNY     85  71  63 W9        30.02S HX  90
$$

IAZ062-063-075>077-085>089-095>099-011700-
   SOUTHEAST IOWA

CITY           SKY/WX    TMP DP  RH WIND       PRES   REMARKS
BURLINGTON     SUNNY     84  72  67 SW9       30.04S HX  89
FAIRFIELD *    SUNNY     84  70  61 SW10G17   30.02S HX  88
FORT MADISON * SUNNY     82  73  74 S8        30.05S HX  88
KEOKUK *       SUNNY     84  72  65 SW10      30.04S HX  89
OSKALOOSA *      N/A     82  70  65 SW12      30.02S HX  86
CENTERVILLE *  SUNNY     82  72  69 S9        30.05S HX  87
OTTUMWA        SUNNY     82  72  71 SW15      30.00S HX  87
WASHINGTON *     N/A    N/A N/A N/A MISG        N/A
$$

ABBREVIATIONS USED IN REMARKS
   TC - TEMPERATURES IN CELSIUS
  WCI - WIND CHILL INDEX
   HX - HEAT INDEX
  VSB - VISIBILITY
$$



USA.gov is the U.S. government's official web portal to all federal, state and local government web resources and services.